Content
SEND FEEDBACK

Daily
Averages
Monthly
Summary
United States of America

VIRGINIA BEACH, VIRGINIA


Home > North America > United States > Virginia
Elevation: 20 feet     Latitude: 36 49N     Longitude: 076 02W

WEATHER
 
SELECT A DAY
Number of Records: 179,412;   Date Range: 1/1/95 - 7/26/14
 
SHARE

PRINT THIS DATA

[ ← Previous Day ]
WEATHER ALMANAC - FEBRUARY 13, 2013
[ Next Day → ]
[ °C ]   °F
Weather ElementAverageHighLow
Temperature48.2 °F51.8 °F (10:07 am)46 °F (2:56 pm)
Dewpoint43.3 °F46.9 °F (12:56 pm)39 °F (1:56 am)
Humidity83.7 %96 % (2:56 pm)63 % (2:56 am)
Barometer29.73 in29.95 in (1:56 am)29.59 in (6:28 pm)
Wind Speed5.3 mph15 mph (11:56 pm)
Wind Gust20.7 mph (11:56 pm)
Weather ElementAverage
Visibility6.3 mi
Wind DirectionSE (139 °)

Weather ElementTotal
Precipitation0.12 in
Heating Degree Days16.1 (Base 65)
Averaged from 51 records on February 13, 2013
WEATHER CONDITIONS BREAKOUT
WIND DIRECTION BREAKOUT
WEATHER BY HOUR - FEBRUARY 13, 2013
[ °C ]   °F
Local TimeTemperatureDewpointHumidityBarometerVisibilityWind DirectionWind SpeedGust SpeedPrecipitationEventsConditions
1:56 AM50.0 °F39.0 °F66 %29.95 in10.0 miSW (220°)12.7 mph17.3 mph0.00 inRainLight Rain
2:56 AM51.1 °F39.0 °F63 %29.89 in10.0 miSSW (200°)4.6 mph0.00 inRainLight Rain
3:09 AM48.2 °F39.2 °F71 %29.88 in10.0 miWSW (250°)5.8 mph0.00 inOvercast
3:56 AM50.0 °F39.0 °F66 %29.86 in10.0 miCalm0.00 inOvercast
4:56 AM50.0 °F39.0 °F66 %29.85 in10.0 miSSE (150°)4.6 mphOvercast
5:56 AM48.9 °F39.0 °F69 %29.84 in10.0 miSouth (170°)4.6 mphOvercast
6:15 AM50.0 °F39.2 °F66 %29.81 in10.0 miSSE (160°)4.6 mph0.00 inRainLight Rain
6:26 AM50.0 °F39.2 °F66 %29.83 in10.0 miCalm0.00 inOvercast
6:56 AM48.0 °F42.1 °F80 %29.83 in10.0 miCalm0.00 inOvercast
7:18 AM48.2 °F41.0 °F76 %29.82 in10.0 miCalm0.00 inRainLight Rain
7:56 AM48.0 °F43.0 °F83 %29.84 in10.0 miCalm0.00 inRainLight Rain
8:18 AM50.0 °F42.8 °F76 %29.84 in10.0 miCalm0.01 inOvercast
8:27 AM50.0 °F41.0 °F71 %29.84 in10.0 miSSW (210°)4.6 mph0.01 inRainLight Rain
8:40 AM50.0 °F42.8 °F76 %29.85 in10.0 miWSW (240°)3.5 mph0.01 inOvercast
8:56 AM50.0 °F43.0 °F77 %29.86 in10.0 miCalm0.01 inOvercast
9:03 AM50.0 °F44.6 °F82 %29.85 in10.0 miSSW (210°)5.8 mph0.00 inRainLight Rain
9:14 AM50.0 °F44.6 °F82 %29.85 in10.0 miSW (230°)3.5 mph0.00 inRainLight Rain
9:56 AM51.1 °F45.0 °F80 %29.83 in10.0 miSSW (200°)5.8 mph0.00 inRainLight Rain
10:07 AM51.8 °F44.6 °F76 %29.83 in10.0 miSSW (210°)4.6 mph0.00 inOvercast
10:56 AM51.1 °F43.0 °F74 %29.80 in10.0 miCalm0.00 inOvercast
11:12 AM51.8 °F44.6 °F76 %29.78 in10.0 miCalm0.00 inRainLight Rain
11:56 AM51.1 °F45.0 °F80 %29.76 in6.0 miNorth (360°)5.8 mph0.00 inRainLight Rain
12:03 PM51.8 °F44.6 °F76 %29.75 in7.0 miNorth (10°)3.5 mph0.00 inOvercast
12:28 PM50.0 °F44.6 °F82 %29.73 in2.5 miNE (50°)5.8 mph0.00 inLight Drizzle
12:56 PM50.0 °F46.9 °F89 %29.71 in2.5 miNorth (10°)5.8 mph0.00 inLight Drizzle
1:08 PM48.2 °F46.4 °F93 %29.70 in2.5 miNorth (10°)8.1 mph0.00 inLight Drizzle
1:20 PM48.2 °F46.4 °F93 %29.70 in2.5 miNNE (20°)6.9 mph0.00 inLight Drizzle
1:35 PM46.4 °F44.6 °F93 %29.70 in2.0 miNorth (10°)5.8 mph0.01 inRainLight Rain
1:56 PM46.9 °F44.1 °F90 %29.67 in3.0 miENE (70°)8.1 mph0.02 inLight Drizzle
2:19 PM46.4 °F44.6 °F93 %29.65 in5.0 miNE (40°)8.1 mph0.00 inOvercast
2:56 PM46.0 °F45.0 °F96 %29.65 in6.0 miEast (80°)5.8 mph0.00 inOvercast
3:26 PM46.4 °F44.6 °F93 %29.63 in2.5 miEast (80°)5.8 mphOvercast
3:30 PM46.4 °F44.6 °F93 %29.62 in2.0 miEast (80°)8.1 mph0.00 inLight Drizzle
3:41 PM46.4 °F42.8 °F87 %29.61 in1.8 miEast (90°)6.9 mph0.00 inLight Drizzle
3:56 PM46.0 °F45.0 °F96 %29.63 in1.8 miENE (70°)6.9 mph0.00 inLight Drizzle
4:03 PM46.4 °F44.6 °F93 %29.63 in1.2 miENE (70°)4.6 mph0.00 inLight Drizzle
4:31 PM46.4 °F42.8 °F87 %29.60 in1.2 miEast (90°)4.6 mph0.00 inLight Drizzle
4:56 PM46.0 °F44.1 °F93 %29.63 in1.5 miCalm0.01 inLight Drizzle
5:56 PM46.0 °F43.0 °F89 %29.60 in1.5 miCalm0.02 inLight Drizzle
6:28 PM46.4 °F44.6 °F93 %29.59 in1.5 miWest (280°)3.5 mph0.01 inLight Drizzle
6:56 PM46.0 °F44.1 °F93 %29.61 in2.0 miWest (280°)4.6 mph0.01 inLight Drizzle
7:56 PM46.9 °F45.0 °F93 %29.61 in2.0 miWNW (290°)5.8 mph0.00 inLight Drizzle
8:08 PM46.4 °F44.6 °F93 %29.61 in2.0 miNW (320°)9.2 mph0.00 inLight Drizzle
8:30 PM46.4 °F44.6 °F93 %29.62 in2.0 miNW (310°)8.1 mph0.00 inOvercast
8:56 PM46.0 °F44.1 °F93 %29.64 in2.0 miWNW (290°)6.9 mph0.00 inOvercast
9:25 PM46.4 °F44.6 °F93 %29.65 in2.0 miWNW (290°)9.2 mphOvercast
9:34 PM46.4 °F42.8 °F87 %29.66 in6.0 miWest (280°)10.4 mphOvercast
9:56 PM46.0 °F45.0 °F96 %29.68 in10.0 miWest (280°)9.2 mph19.6 mphOvercast
10:12 PM46.4 °F44.6 °F93 %29.67 in10.0 miWNW (290°)12.7 mphOvercast
10:56 PM46.9 °F45.0 °F93 %29.70 in10.0 miWNW (290°)10.4 mphOvercast
11:56 PM46.0 °F43.0 °F89 %29.73 in10.0 miWNW (300°)15.0 mph20.7 mphOvercast
Hourly data recorded from KNTU, located miles away from Virginia Beach, Virginia







STORIES FROM OUR PARTNERS